Regional Weather Roundup
Issued by NWS

Home | Current Version | Previous Version | Graphics & Text | Print | Product List | Glossary On
Versions: 1 2 3 4 5 6 7 8 9 10 11 12 13 14 15 16 17 18 19 20 21 22 23 24 25 26 27 28 29 30 31 32 33 34 35 36 37 38 39 40 41 42 43 44 45 46 47 48 49 50
970
ASUS45 KCYS 261210
RWRWY

WYOMING REGIONAL WEATHER ROUNDUP
NATIONAL WEATHER SERVICE CHEYENNE WY
500 AM MST SUN FEB 26 2017

NOTE:  "FAIR" INDICATES FEW OR NO CLOUDS BELOW 12,000 FEET
WITH NO SIGNIFICANT WEATHER AND/OR OBSTRUCTIONS TO VISIBILITY.

WYZ001-261300-
YELLOWSTONE NATIONAL PARK

CITY           SKY/WX    TMP DP  RH WIND       PRES   REMARKS
LK YELLOWSTONE   N/A      7   2  80 VRB3      29.72S
6HR MIN TEMP:  -1; 6HR MAX TEMP:   7;

W YELLOWSTONE  NOT AVBL

$$
WYZ002>013-054>058-071-098>099-261300-
NORTHERN WYOMING

CITY           SKY/WX    TMP DP  RH WIND       PRES   REMARKS
JACKSON        CLOUDY    12  10  92 SW9       29.80S WCI   0
CODY           FAIR      22   2  42 W22G31    29.71R WCI   6
GREYBULL       FAIR      19  12  74 SE5       29.76R WCI  12
6HR MIN TEMP:  19; 6HR MAX TEMP:  24;

WORLAND        FAIR      12   6  77 SW6       29.75R WCI   3
6HR MIN TEMP:  12; 6HR MAX TEMP:  18;

SHERIDAN       FAIR      13   4  67 S8        29.72R WCI   2
6HR MIN TEMP:  11; 6HR MAX TEMP:  17;

BUFFALO        FAIR      12  -2  53 W5        29.68S WCI   4
6HR MIN TEMP:  11; 6HR MAX TEMP:  19;

GILLETTE       FAIR      17   5  59 SW13      29.70S WCI   4
6HR MIN TEMP:  16; 6HR MAX TEMP:  21;

HULETT         FAIR      21  16  79 SW8       29.71S WCI  12
NEWCASTLE      FAIR       5   3  92 S6        29.76R WCI  -6

$$
WYZ014>020-022>026-101>103-261300-
CENTRAL WYOMING

CITY           SKY/WX    TMP DP  RH WIND       PRES   REMARKS
BIG PINEY      FAIR     -12 -15  86 N6        29.81S WCI -26
6HR MIN TEMP: -16; 6HR MAX TEMP:  -6;

PINEDALE       FAIR     -13 -17  84 NW3       29.81S
DUBOIS         FAIR       5  -4  66 NW21      29.69S WCI -16
LANDER         FAIR       3  -8  60 SE5       29.71S WCI  -6
6HR MIN TEMP:  -2; 6HR MAX TEMP:  10;

RIVERTON       FAIR       3  -7  63 SW13      29.70F WCI -14
6HR MIN TEMP:   3; 6HR MAX TEMP:  16;

CASPER         FAIR      10   0  63 SW14      29.75R WCI  -6
6HR MIN TEMP:   9; 6HR MAX TEMP:  12;

DOUGLAS        FAIR       1  -7  68 CALM      29.76S
6HR MIN TEMP:  -4; 6HR MAX TEMP:  13;


$$
WYZ021-027>030-104>119-261300-
SOUTHERN WYOMING

CITY           SKY/WX    TMP DP  RH WIND       PRES   REMARKS
EVANSTON       FLURRIES   3  -1  83 SW9       29.83S WCI -12
6HR MIN TEMP:   2; 6HR MAX TEMP:   5; 6HR PCP: TRACE;

KEMMERER         N/A      0  -4  85 W9        29.80S WCI -16
FORT BRIDGER   MOSUNNY    7   1  78 W14       29.85S WCI -10
ROCK SPRINGS   FAIR       6   1  80 SW16      29.82S WCI -12
6HR MIN TEMP:   4; 6HR MAX TEMP:  10;

DIXON            N/A     -1  -6  80 CALM      29.90S
RAWLINS        FAIR       9   1  70 SW15G25   29.77S WCI  -8
6HR MIN TEMP:   8; 6HR MAX TEMP:  10;

SARATOGA       FAIR       9   3  78 SW9       29.81S WCI  -5
LARAMIE        FAIR       6  -4  63 SW15      29.73R WCI -12
6HR MIN TEMP:   5; 6HR MAX TEMP:  13;

CHEYENNE       FAIR      13  -3  49 W14       29.74S WCI  -2
6HR MIN TEMP:  10; 6HR MAX TEMP:  14;

TORRINGTON     FAIR      13   2  61 NW12      29.79S WCI  -1
6HR MIN TEMP:  13; 6HR MAX TEMP:  21;

PINE BLUFFS    FAIR       3  -4  72 MISG      29.80S

$$




USA.gov is the U.S. government's official web portal to all federal, state and local government web resources and services.